Flag for Thailand Weather past 2 weeks in Khon Kaen, Thailand

Now
77 °F

Broken clouds.


Feels Like: 79 °F
Forecast: 78 / 91 °F
Wind: 6 mph from East

Location: Khon Kaen Airport

Current Time: Apr 22, 2015 at 6:42:04 AM

Latest Report: Apr 22, 2015 at 6:00 AM


Visibility: 6 mi

Pressure: 29.86 "Hg

Humidity: 74%

Dew point: 68 °F

Location of Khon KaenLocation

Historic Weather in Khon Kaen — Graph

°F

Khon Kaen temperature yesterday

Maximum temperature yesterday: 104 °F (at 1:00 PM)
Minimum temperature yesterday: 81 °F (at 6:00 AM)
Average temperature yesterday: 95 °F

Past Weeks' High & Low Weather Summary

 TemperatureHumidityPressure
High106 °F (Apr 20, 3:00 PM)100% (Apr 15, 6:00 PM)30.09 "Hg (Apr 15, 6:00 PM)
Low37 °F (Apr 15, 6:00 PM)18% (Apr 20, 3:00 PM)29.62 "Hg (Apr 21, 5:00 PM)
Average86 °F46%29.85 "Hg
* Reported Apr 7 5:00 AM — Apr 22 5:00 AM, Khon Kaen, Weather by CustomWeather, © 2015

Note: Actual official high and low records may vary slightly from our data, if they occured in-between our weather recording intervals... More about our weather records

Advertising

Khon Kaen weather history for previous 24 hours

 ConditionsComfort  
Time TempWeatherWind HumidityBarometerVisibility
5:00 AM
Wed, Apr 22
77 °FPartly cloudy.7 mph79%29.83 "HgN/A
4:00 AM79 °FPassing clouds.7 mph70%29.80 "HgN/A
3:00 AM81 °FPassing clouds.8 mph66%29.77 "HgN/A
2:00 AM82 °FPassing clouds.7 mph58%29.77 "HgN/A
1:00 AM86 °FPassing clouds.9 mph55%29.77 "HgN/A
12:00 AM88 °FClear.5 mph46%29.77 "Hg10 mi
10:00 PM
Tue, Apr 21
90 °FPassing clouds.5 mph43%29.74 "HgN/A
9:00 PM91 °FPassing clouds.3 mph41%29.74 "HgN/A
8:00 PM91 °FPassing clouds.3 mph41%29.68 "HgN/A
7:00 PM97 °FPassing clouds.6 mph32%29.68 "HgN/A
6:00 PM97 °FBroken clouds.7 mph32%29.65 "HgN/A
5:00 PM99 °FBroken clouds.5 mph27%29.62 "HgN/A
4:00 PM99 °FBroken clouds.10 mph27%29.65 "HgN/A
3:00 PM104 °FBroken clouds.7 mph26%29.65 "HgN/A
2:00 PM104 °FScattered clouds.6 mph24%29.71 "HgN/A
1:00 PM104 °FScattered clouds.7 mph24%29.71 "HgN/A
12:00 PM102 °FSunny.5 mph26%29.77 "Hg10 mi
11:00 AM102 °FSunny.7 mph27%29.77 "Hg10 mi
10:00 AM97 °FPassing clouds.7 mph34%29.80 "HgN/A
9:00 AM93 °FClear.6 mph39%29.80 "Hg6 mi
8:00 AM88 °FClear.5 mph52%29.80 "Hg6 mi
7:00 AM82 °FClear.5 mph62%29.77 "Hg6 mi
6:00 AM81 °FPassing clouds.5 mph62%29.74 "HgN/A
Weather by CustomWeather, © 2015

See weather overviewHow to use our weather pages